New York JFK, NY

1:41 AM EST on November 25, 2017 (GMT -0500)
Kennedy International

Weather History for KJFK - September, 2013

Change the Weather History Date:

Saturday, September 7, 2013

  Actual Average Record
Temperature  
Mean Temperature 68 °F 71 °F  
Max Temperature 78 °F 78 °F 93 °F (1983)
Min Temperature 58 °F 64 °F 47 °F (1962)
Degree Days  
Heating Degree Days 0 0  
Month to date heating degree days 1 0  
Since 1 July heating degree days 1 1  
Cooling Degree Days 3 6  
Month to date cooling degree days 58 49  
Year to date cooling degree days 1017 910  
Growing Degree Days 18 (Base 50)    
Moisture  
Dew Point 51 °F    
Average Humidity 52    
Maximum Humidity 72    
Minimum Humidity 31    
Precipitation  
Precipitation 0.00 in 0.10 in 0.98 in (1974)
Month to date precipitation 0.03 0.75  
Year to date precipitation 26.22 29.71  
Snow  
Snow 0.00 in 0.00 in - ()
Month to date snowfall 0.0 0.0  
Since 1 July snowfall 0.0 0.0  
Snow Depth 0.00 in    
Sea Level Pressure  
Sea Level Pressure 30.05 in    
Wind  
Wind Speed 12 mph (SW)    
Max Wind Speed 20 mph    
Max Gust Speed 24 mph    
Visibility 10 miles    
Events      
T = Trace of Precipitation, MM = Missing Value Source: NWS Daily Summary

Daily Weather History Graph

Daily Weather History Graph

Search for Another Location

Airport or City:

Trip Planner

Search our weather history database for the weather conditions in past years. The results will help you decide how hot, cold, wet, or windy it might be!

Date:

Astronomy

Sep. 07, 2013 Rise Set
Actual Time 6:28 AM EDT 7:17 PM EDT
Civil Twilight 6:00 AM EDT 7:44 PM EDT
Nautical Twilight 5:27 AM EDT 8:17 PM EDT
Astronomical Twilight 4:53 AM EDT 8:51 PM EDT
Moon 8:40 AM EDT (9/7) 8:12 PM EDT (9/7)
Length of Visible Light 13h 44m
Length of Day
12h 48m
Waxing Crescent, 5% of the Moon is Illuminated
Sep 7
Waxing Crescent
Sep 12
First Quarter
Sep 19
Full
Sep 26
Last Quarter
Oct 4
New

Hourly Weather History & Observations

Time (EDT) Temp. Dew Point Humidity Pressure Visibility Wind Dir Wind Speed Gust Speed Precip Events Conditions
12:51 AM 60.1 °F 48.0 °F 64% 30.15 in 10.0 mi WSW 8.1 mph - N/A   Clear
1:51 AM 62.1 °F 50.0 °F 65% 30.14 in 10.0 mi WSW 10.4 mph - N/A   Partly Cloudy
2:51 AM 61.0 °F 50.0 °F 67% 30.14 in 10.0 mi WNW 6.9 mph - N/A   Partly Cloudy
3:51 AM 60.1 °F 46.0 °F 60% 30.14 in 10.0 mi WSW 9.2 mph - N/A   Partly Cloudy
4:51 AM 59.0 °F 46.9 °F 64% 30.13 in 10.0 mi WSW 6.9 mph - N/A   Partly Cloudy
5:51 AM 59.0 °F 48.9 °F 69% 30.13 in 10.0 mi West 6.9 mph - N/A   Partly Cloudy
6:51 AM 61.0 °F 51.1 °F 70% 30.12 in 10.0 mi West 11.5 mph - N/A   Partly Cloudy
7:51 AM 64.0 °F 52.0 °F 65% 30.11 in 10.0 mi West 6.9 mph - N/A   Partly Cloudy
8:51 AM 66.9 °F 51.1 °F 57% 30.12 in 10.0 mi WSW 8.1 mph - N/A   Partly Cloudy
9:51 AM 70.0 °F 45.0 °F 41% 30.11 in 10.0 mi WSW 10.4 mph - N/A   Scattered Clouds
10:51 AM 71.1 °F 46.0 °F 41% 30.10 in 10.0 mi SW 11.5 mph - N/A   Scattered Clouds
11:51 AM 73.0 °F 46.0 °F 38% 30.09 in 10.0 mi SW 11.5 mph - N/A   Scattered Clouds
12:51 PM 75.9 °F 44.1 °F 32% 30.06 in 10.0 mi SW 11.5 mph - N/A   Scattered Clouds
1:51 PM 77.0 °F 44.1 °F 31% 30.02 in 10.0 mi SSW 15.0 mph - N/A   Mostly Cloudy
2:51 PM 75.0 °F 51.1 °F 43% 29.99 in 10.0 mi South 13.8 mph - N/A   Mostly Cloudy
3:51 PM 73.0 °F 51.1 °F 46% 29.99 in 10.0 mi South 17.3 mph - N/A   Mostly Cloudy
4:51 PM 73.0 °F 52.0 °F 48% 29.97 in 10.0 mi South 17.3 mph - N/A   Mostly Cloudy
5:51 PM 70.0 °F 54.0 °F 57% 29.96 in 10.0 mi South 17.3 mph - N/A   Mostly Cloudy
6:51 PM 70.0 °F 55.9 °F 61% 29.96 in 10.0 mi South 15.0 mph - N/A   Mostly Cloudy
7:51 PM 70.0 °F 57.0 °F 63% 29.96 in 10.0 mi SSW 18.4 mph - N/A   Mostly Cloudy
8:51 PM 70.0 °F 57.9 °F 65% 29.95 in 10.0 mi SSW 15.0 mph - N/A   Mostly Cloudy
9:51 PM 70.0 °F 55.9 °F 61% 29.94 in 10.0 mi SSW 11.5 mph - N/A   Overcast
10:51 PM 69.1 °F 57.0 °F 65% 29.94 in 10.0 mi SW 10.4 mph - N/A   Overcast
11:51 PM 69.1 °F 57.0 °F 65% 29.93 in 10.0 mi SW 8.1 mph - N/A   Overcast